Terug naar catalogus

STARLINK-4156

ActiefCommunicatieVLEO
NORAD 53038·PAYLOAD·🇺🇸 United States

Gelanceerd Jul 7, 2022 vanaf Cape Canaveral Space Force Station

Loading…

Volgende Passages (komende 24 uur)

TLE

VersSource: CelesTrak SupGP

Epoch: Sep 14, 2026, 22:16 UTC

1 53038C 22076BE  26257.92826389  .00031123  00000+0  91958-3 0  2576
2 53038  53.1590 299.5982 0001250  86.1392  40.5248 15.34373603    14

Volg STARLINK-4156 in realtime met AllMySat

Download on the App Store